GW2054 Weather Reports


Display with metric or nautical units.
time (UTC)temp
F
wind
direction
speed
MPH
gust
MPH
rain 1hr
in
rain 24hr
in
rain mn
in
humidity
%
barometer
mb
20260508145116 52 293 2.0 8.0 0.00 0.00 0.00 70 1005.8
20260508144056 50 293 3.0 7.0 0.00 0.00 0.00 74 1006.2
20260508143546 51 270 3.0 7.0 0.00 0.00 0.00 73 1006.5
20260508143047 51 270 3.0 9.0 0.00 0.00 0.00 73 1006.2
20260508142016 51 248 2.0 8.0 0.00 0.00 0.00 74 1006.3
20260508141513 50 270 2.0 8.0 0.00 0.00 0.00 75 1006.1
20260508140955 50 315 2.0 7.0 0.00 0.00 0.00 75 1006.1
20260508140446 50 293 2.0 7.0 0.00 0.00 0.00 75 1006.2
20260508135935 49 338 2.0 7.0 0.00 0.00 0.00 76 1006.3
20260508135424 50 270 2.0 7.0 0.00 0.00 0.00 76 1006.2
20260508134915 50 270 2.0 7.0 0.00 0.00 0.00 77 1006.4
20260508134405 50 248 3.0 6.0 0.00 0.00 0.00 77 1006.4
20260508133855 49 270 1.0 7.0 0.00 0.00 0.00 77 1006.1
20260508133344 49 293 2.0 7.0 0.00 0.00 0.00 78 1006.2
20260508132835 49 248 2.0 13.0 0.00 0.00 0.00 79 1006.1
20260508131815 49 270 2.0 6.0 0.00 0.00 0.00 79 1006.1
20260508131304 49 248 2.0 7.0 0.00 0.00 0.00 79 1006.0
20260508130754 48 225 3.0 7.0 0.00 0.00 0.00 80 1006.0
20260508130244 48 248 3.0 7.0 0.00 0.00 0.00 79 1006.1
20260508125734 48 248 2.0 8.0 0.00 0.00 0.00 80 1006.0
20260508125223 48 248 3.0 8.0 0.00 0.00 0.00 80 1006.1
20260508124204 48 293 3.0 11.0 0.00 0.00 0.00 80 1006.0
20260508123654 48 270 2.0 11.0 0.00 0.00 0.00 80 1005.8
20260508123143 47 248 2.0 8.0 0.00 0.00 0.00 82 1005.8
20260508122634 47 203 2.0 6.0 0.00 0.00 0.00 82 1005.8
20260508122123 46 315 2.0 7.0 0.00 0.00 0.00 83 1005.6
20260508121613 46 315 2.0 7.0 0.00 0.00 0.00 83 1005.5
20260508121103 47 248 2.0 11.0 0.00 0.00 0.00 83 1005.5
20260508120554 46 248 1.0 11.0 0.00 0.00 0.00 83 1005.5
20260508120053 46 248 2.0 7.0 0.00 0.00 0.00 83 1005.5
20260508115532 46 293 2.0 6.0 0.00 0.00 0.00 83 1005.3
20260508115023 46 248 3.0 6.0 0.00 0.00 0.00 83 1005.4
20260508114003 46 270 2.0 9.0 0.00 0.00 0.00 85 1005.2
20260508113452 45 293 2.0 9.0 0.00 0.00 0.00 84 1005.2
20260508112941 45 270 2.0 11.0 0.00 0.00 0.00 85 1004.9
20260508112432 45 270 2.0 11.0 0.00 0.00 0.00 85 1004.9
20260508111412 45 248 1.0 11.0 0.00 0.00 0.00 86 1005.0
20260508110351 44 270 2.0 4.0 0.00 0.00 0.00 89 1004.8
20260508105841 44 248 2.0 4.0 0.00 0.00 0.00 89 1004.8
20260508105331 44 248 2.0 4.0 0.00 0.00 0.00 89 1004.7
20260508104821 44 270 2.0 4.0 0.00 0.00 0.00 88 1004.7
20260508104311 44 270 1.0 4.0 0.00 0.00 0.00 87 1004.7
20260508103801 45 248 2.0 4.0 0.00 0.00 0.00 86 1004.7
20260508102231 45 270 1.0 6.0 0.00 0.00 0.00 85 1004.3
20260508101720 45 270 2.0 6.0 0.00 0.00 0.00 85 1004.4
20260508101211 45 248 2.0 4.0 0.00 0.00 0.00 86 1004.3
20260508100700 45 270 2.0 4.0 0.00 0.00 0.00 86 1004.2
20260508100150 46 248 2.0 6.0 0.00 0.00 0.00 87 1004.3
20260508095640 46 293 1.0 6.0 0.00 0.00 0.00 87 1004.0
20260508095130 46 270 2.0 7.0 0.00 0.00 0.00 87 1004.0
20260508094631 46 248 3.0 7.0 0.00 0.00 0.00 86 1004.1
20260508094109 46 270 0.0 6.0 0.00 0.00 0.00 85 1004.0
20260508093600 46 270 1.0 6.0 0.00 0.00 0.00 85 1004.0
20260508093049 45 248 1.0 4.0 0.00 0.00 0.00 86 1003.9
20260508092540 45 270 2.0 4.0 0.00 0.00 0.00 87 1004.0
20260508092029 46 248 2.0 4.0 0.00 0.00 0.00 88 1004.0
20260508091519 46 248 2.0 4.0 0.00 0.00 0.00 88 1003.9
20260508091009 46 248 2.0 7.0 0.00 0.00 0.00 88 1003.9
20260508090458 46 248 2.0 7.0 0.00 0.00 0.00 88 1004.0
20260508085438 46 293 2.0 6.0 0.00 0.00 0.00 86 1003.6
20260508084929 47 248 2.0 6.0 0.00 0.00 0.00 86 1003.8
20260508084419 47 293 2.0 6.0 0.00 0.00 0.00 85 1003.7
20260508083909 47 248 2.0 4.0 0.00 0.00 0.00 83 1003.6
20260508082848 47 270 2.0 7.0 0.00 0.00 0.00 85 1003.7
20260508082339 47 225 2.0 7.0 0.00 0.00 0.00 85 1003.7
20260508081828 47 293 2.0 4.0 0.00 0.00 0.00 85 1003.7
20260508081317 47 270 0.0 4.0 0.00 0.00 0.00 87 1003.5
20260508080808 47 248 2.0 4.0 0.00 0.00 0.00 86 1003.6
20260508080257 48 270 0.0 4.0 0.00 0.00 0.00 87 1003.4
20260508075748 48 270 1.0 4.0 0.00 0.00 0.00 87 1003.4
20260508075237 48 270 1.0 4.0 0.00 0.00 0.00 87 1003.3
20260508074727 48 270 1.0 4.0 0.00 0.00 0.00 87 1003.3
20260508074217 48 270 0.0 4.0 0.00 0.00 0.00 87 1003.3
20260508073706 48 293 1.0 4.0 0.00 0.00 0.00 86 1003.5
20260508073156 48 293 3.0 4.0 0.00 0.00 0.00 86 1003.4
20260508072646 48 270 2.0 4.0 0.00 0.00 0.00 85 1003.2
20260508072136 48 248 1.0 4.0 0.00 0.00 0.00 84 1003.4
20260508071626 48 270 2.0 4.0 0.00 0.00 0.00 84 1003.4
20260508071116 48 270 2.0 4.0 0.00 0.00 0.00 84 1003.4
20260508070101 49 270 2.0 4.0 0.00 0.00 0.00 84 1003.6
20260508065556 49 293 1.0 4.0 0.00 0.00 0.00 83 1003.7
20260508065036 49 293 2.0 4.0 0.00 0.00 0.00 83 1003.7
20260508064525 49 270 2.0 4.0 0.00 0.00 0.00 82 1003.5
20260508064016 49 270 0.0 4.0 0.00 0.00 0.00 82 1003.7
20260508063505 49 248 2.0 4.0 0.00 0.00 0.00 82 1003.9
20260508062956 49 270 2.0 6.0 0.00 0.00 0.00 83 1003.9
20260508062445 48 270 2.0 6.0 0.00 0.00 0.00 84 1004.0
20260508061935 49 270 1.0 4.0 0.00 0.00 0.00 85 1003.9
20260508061425 48 270 2.0 4.0 0.00 0.00 0.00 84 1004.1
20260508060916 48 270 2.0 4.0 0.00 0.00 0.00 84 1004.0
20260508060404 49 270 1.0 0.0 0.00 0.00 0.00 84 1004.1
20260508060201 49 270 0.0 0.0 0.00 0.00 0.00 83 1004.1
20260508055539 49 293 0.0 7.0 0.00 0.00 0.00 82 1004.0
20260508055030 49 270 1.0 7.0 0.00 0.00 0.00 82 1004.1
20260508054519 49 270 1.0 4.0 0.00 0.00 0.00 82 1004.3
20260508054009 49 270 2.0 8.0 0.00 0.00 0.00 82 1004.0
20260508053458 49 338 2.0 9.0 0.00 0.00 0.00 82 1004.2
20260508052949 49 270 0.0 9.0 0.00 0.00 0.00 83 1004.4
20260508050909 48 270 0.0 4.0 0.00 0.00 0.00 87 1004.3
20260508050358 48 293 0.0 6.0 0.00 0.00 0.00 88 1004.3
20260508045849 48 293 0.0 6.0 0.00 0.00 0.00 88 1004.2
20260508045338 48 270 1.0 4.0 0.00 0.00 0.00 89 1003.9
20260508044829 48 270 1.0 2.0 0.00 0.00 0.00 89 1004.0
20260508044318 48 270 1.0 4.0 0.00 0.00 0.00 89 1003.8
20260508043807 48 270 0.0 4.0 0.00 0.00 0.00 89 1003.9
20260508043257 48 270 1.0 4.0 0.00 0.00 0.00 89 1003.9
20260508042238 48 270 1.0 6.0 0.00 0.00 0.00 90 1003.9
20260508041728 48 270 1.0 4.0 0.00 0.00 0.00 91 1003.9
20260508041218 48 315 1.0 4.0 0.00 0.00 0.00 92 1003.9
20260508040707 48 248 1.0 4.0 0.00 0.00 0.00 92 1004.1
20260508040158 48 270 1.0 4.0 0.00 0.00 0.00 93 1004.1
20260508035648 48 0 2.0 4.0 0.00 0.00 0.00 93 1004.0
20260508035136 48 270 0.0 4.0 0.00 0.00 0.00 94 1004.0
20260508034627 47 338 2.0 7.0 0.00 0.00 0.00 95 1004.0
20260508034117 47 315 2.0 7.0 0.00 0.00 0.00 95 1004.0
20260508033606 47 270 2.0 6.0 0.00 0.00 0.00 96 1004.1
20260508032546 47 158 2.0 8.0 0.00 0.00 0.00 96 1004.0
20260508032037 48 248 2.0 8.0 0.00 0.00 0.00 97 1004.0
20260508031526 48 23 2.0 7.0 0.00 0.00 0.00 97 1004.1
20260508031016 48 270 2.0 4.0 0.00 0.00 0.00 97 1004.1
20260508030506 48 225 2.0 4.0 0.00 0.00 0.00 97 1004.1
20260508025955 48 270 1.0 4.0 0.00 0.00 0.94 98 1004.0
20260508025446 48 248 1.0 6.0 0.00 0.00 0.94 98 1004.1
20260508024935 49 45 2.0 6.0 0.00 0.00 0.94 97 1003.9
20260508024426 49 270 1.0 4.0 0.00 0.00 0.94 97 1003.9
20260508023915 49 293 1.0 4.0 0.00 0.00 0.94 97 1003.7
20260508023404 49 315 2.0 7.0 0.00 0.00 0.94 96 1003.8
20260508022855 49 248 2.0 7.0 0.00 0.00 0.94 96 1003.9
20260508021835 49 248 2.0 6.0 0.00 0.00 0.94 97 1003.7
20260508021324 49 248 2.0 7.0 0.00 0.00 0.94 97 1003.5
20260508020815 49 0 1.0 7.0 0.00 0.00 0.94 97 1003.4
20260508020305 49 248 1.0 4.0 0.00 0.00 0.94 98 1003.3
20260508015244 49 248 1.0 4.0 0.00 0.00 0.94 98 1003.4
20260508014734 49 293 1.0 7.0 0.00 0.00 0.94 98 1003.4
20260508013203 49 248 2.0 9.0 0.00 0.00 0.94 99 1003.6
20260508012143 49 338 2.0 7.0 0.00 0.00 0.94 99 1003.5
20260508011634 49 248 2.0 6.0 0.00 0.00 0.94 99 1003.6
20260508011123 50 293 2.0 7.0 0.00 0.00 0.94 99 1003.7
20260508010614 50 248 2.0 9.0 0.00 0.00 0.94 99 1003.8
20260508010103 50 293 2.0 9.0 0.00 0.00 0.94 99 1003.9
20260508005043 50 225 2.0 6.0 0.00 0.00 0.94 99 1003.8
20260508004023 50 270 2.0 6.0 0.00 0.00 0.94 99 1003.9
20260508003513 51 248 2.0 7.0 0.00 0.00 0.94 98 1003.9
20260508003003 51 315 3.0 7.0 0.00 0.00 0.94 98 1003.9
20260508002452 51 315 2.0 8.0 0.00 0.00 0.94 98 1004.1
20260508001942 51 248 2.0 8.0 0.00 0.00 0.94 98 1004.0
20260508000922 51 270 2.0 7.0 0.00 0.00 0.94 98 1004.1
20260508000412 51 248 3.0 7.0 0.00 0.00 0.94 97 1004.1
20260507235902 51 248 2.0 4.0 0.00 0.00 0.94 97 1004.2
20260507235352 51 270 1.0 4.0 0.00 0.00 0.94 97 1004.0
20260507234842 51 248 2.0 4.0 0.00 0.00 0.94 96 1004.0
20260507234332 51 248 2.0 4.0 0.00 0.00 0.94 96 1004.1
20260507233821 52 248 2.0 6.0 0.00 0.00 0.94 95 1004.3
20260507233311 52 248 2.0 6.0 0.00 0.00 0.94 94 1004.1
20260507232801 53 248 1.0 6.0 0.00 0.00 0.94 93 1004.2
20260507232251 53 270 2.0 6.0 0.00 0.00 0.94 92 1004.1
20260507231741 53 248 1.0 6.0 0.00 0.00 0.94 91 1004.1
20260507231231 53 270 2.0 6.0 0.00 0.00 0.94 92 1004.2
20260507230720 53 270 2.0 4.0 0.00 0.00 0.94 92 1004.0
20260507230211 53 248 2.0 4.0 0.00 0.00 0.94 93 1004.2
20260507225700 52 248 2.0 4.0 0.00 0.00 0.94 93 1004.1
20260507224640 52 248 2.0 7.0 0.00 0.00 0.94 94 1004.2
20260507223109 52 270 2.0 4.0 0.00 0.00 0.94 95 1004.3
20260507222559 53 248 2.0 6.0 0.00 0.00 0.94 94 1004.2
20260507221539 53 270 2.0 4.0 0.00 0.00 0.94 90 1003.9
20260507220519 53 248 2.0 6.0 0.00 0.00 0.94 93 1003.3
20260507215459 53 270 1.0 4.0 0.00 0.00 0.94 95 1003.2
20260507214949 53 293 1.0 4.0 0.00 0.00 0.94 96 1003.4
20260507214439 53 293 1.0 2.0 0.00 0.00 0.94 96 1003.5
20260507213929 53 270 0.0 6.0 0.00 0.00 0.94 96 1003.4
20260507213419 53 270 0.0 6.0 0.00 0.00 0.94 95 1003.3
20260507212909 53 270 2.0 6.0 0.00 0.00 0.94 95 1003.4
20260507212358 54 248 2.0 7.0 0.00 0.00 0.94 94 1003.5
20260507211848 54 270 2.0 7.0 0.00 0.00 0.94 92 1003.5
20260507210828 55 248 2.0 4.0 0.00 0.00 0.94 89 1003.4
20260507210319 55 293 2.0 4.0 0.00 0.00 0.94 89 1003.3
20260507205808 55 270 1.0 4.0 0.00 0.00 0.94 90 1003.4
20260507205258 55 270 1.0 6.0 0.00 0.00 0.94 89 1003.3
20260507204748 55 248 4.0 6.0 0.00 0.00 0.94 89 1003.3
20260507203728 55 248 2.0 6.0 0.00 0.00 0.94 90 1002.9
20260507203217 55 248 2.0 6.0 0.00 0.00 0.94 89 1003.2
20260507202708 55 293 2.0 6.0 0.00 0.00 0.94 89 1003.0
20260507202157 55 248 1.0 6.0 0.00 0.00 0.94 89 1002.7
20260507201647 55 248 2.0 4.0 0.00 0.00 0.94 89 1003.0
20260507201137 56 248 1.0 4.0 0.00 0.00 0.94 88 1002.7
20260507200627 56 248 0.0 4.0 0.00 0.00 0.94 88 1002.9
20260507195606 56 270 0.0 4.0 0.00 0.00 0.94 86 1002.4
20260507194036 56 293 0.0 4.0 0.00 0.00 0.94 85 1001.4
20260507192506 57 293 1.0 4.0 0.00 0.00 0.94 84 1001.2
20260507191956 57 248 2.0 4.0 0.00 0.00 0.94 83 1002.0
20260507191445 57 293 1.0 7.0 0.00 0.00 0.94 83 1002.0
20260507190936 57 315 1.0 7.0 0.00 0.00 0.94 83 1001.8
20260507190425 57 270 1.0 4.0 0.00 0.00 0.94 83 1002.2
20260507185916 58 270 2.0 6.0 0.00 0.00 0.94 81 1002.5
20260507185405 58 315 0.0 11.0 0.00 0.00 0.94 81 1003.0
20260507184855 58 338 2.0 11.0 0.00 0.00 0.94 80 1003.0
20260507184345 58 248 2.0 7.0 0.00 0.00 0.94 80 1003.2
20260507183835 58 293 2.0 7.0 0.00 0.00 0.94 79 1003.3
20260507182814 58 248 2.0 6.0 0.00 0.00 0.94 80 1003.5
20260507182307 58 270 2.0 7.0 0.00 0.00 0.94 81 1003.7
20260507181751 58 225 2.0 7.0 0.00 0.00 0.94 80 1003.9
20260507181241 59 315 1.0 4.0 0.00 0.00 0.94 82 1004.1
20260507180733 58 248 0.0 6.0 0.00 0.00 0.94 82 1004.5
20260507180233 58 248 2.0 6.0 0.00 0.00 0.94 81 1004.7
20260507175714 58 225 4.0 6.0 0.00 0.00 0.94 81 1004.7
20260507175204 58 248 2.0 9.0 0.00 0.00 0.94 82 1004.6
20260507174654 58 248 3.0 9.0 0.00 0.00 0.94 82 1004.7
20260507174144 58 248 0.0 4.0 0.00 0.00 0.94 83 1004.7
20260507173634 58 270 0.0 11.0 0.00 0.00 0.94 83 1004.6
20260507173123 57 248 4.0 11.0 0.00 0.00 0.94 82 1004.4
20260507172613 58 248 2.0 4.0 0.00 0.00 0.94 83 1004.3
20260507172102 58 270 2.0 4.0 0.00 0.00 0.94 83 1003.7
20260507171043 58 248 1.0 4.0 0.00 0.00 0.94 83 1003.5
20260507165513 58 248 1.0 4.0 0.00 0.00 0.94 83 1003.5
20260507165002 58 248 1.0 4.0 0.00 0.00 0.94 83 1003.1
20260507164453 58 248 1.0 4.0 0.00 0.00 0.94 83 1003.1
20260507163942 58 270 2.0 4.0 0.00 0.00 0.94 83 1003.2
20260507163431 58 248 1.0 4.0 0.00 0.00 0.94 85 1003.4
20260507162922 57 270 0.0 4.0 0.00 0.00 0.94 86 1003.5
20260507162411 57 248 1.0 4.0 0.00 0.00 0.94 85 1003.8
20260507161902 57 293 2.0 4.0 0.00 0.00 0.94 84 1003.9
20260507161352 57 270 1.0 6.0 0.00 0.00 0.94 85 1004.1
20260507160841 58 248 2.0 6.0 0.00 0.00 0.94 85 1003.9
20260507155821 58 225 2.0 4.0 0.00 0.00 0.94 85 1004.1
20260507155311 58 315 2.0 4.0 0.00 0.00 0.94 85 1003.5
20260507154801 59 270 2.0 4.0 0.00 0.00 0.94 85 1003.6
20260507154250 59 248 2.0 6.0 0.00 0.00 0.94 84 1003.9
20260507153741 59 248 2.0 6.0 0.00 0.00 0.94 85 1003.5
20260507153230 58 248 3.0 4.0 0.00 0.00 0.94 85 1003.4
20260507152721 58 248 0.0 4.0 0.00 0.00 0.94 88 1003.7
20260507152210 58 248 1.0 4.0 0.00 0.00 0.94 88 1003.6
20260507151701 58 270 1.0 4.0 0.00 0.00 0.94 88 1003.7
20260507151150 59 270 0.0 4.0 0.00 0.00 0.94 87 1003.5
20260507150130 59 0 0.0 6.0 0.00 0.00 0.94 88 1003.1